sat.trackr.live / text

‹ back to catalog

STARLINK-31125

NORAD 58678 · 2023-211M

PAYLOAD ACTIVE UNKNOWN

§ Identity

Operator
Country
US
Launch date
2023-12-29
Launch site
AFETR
Launch vehicle
Mass (kg)
RCS (m²)

Purposes: comms

External: N2YO · Heavens-Above · Gunter

§ Orbital elements

Epoch: 2026-09-20T03:34:57.996768Z

Period
94.27 min
Inclination
43.0022°
Eccentricity
0.0001831
Mean motion
15.27579782 rev/d
Perigee alt
481.8 km
Apogee alt
484.3 km
Semi-major
6,861.2 km
B*
2.0058e-5
RAAN
67.1615°
Arg perigee
270.1346°
Mean anomaly
89.9296°
Rev number
15,337

§ Raw data

STARLINK-311251 58678U 23211M   26263.14928237  .00000290  00000+0  20058-4 0  99972 58678  43.0022  67.1615 0001831 270.1346  89.9296 15.27579782153374

JSON: /api/v1/satellites/58678 · /tle

For live sub-satellite position, see the globe view (requires WebGL).

§ Visibility from observer

Set your observer location to see the next 7 days of passes ≥ 10°. The values pass through the URL so the page stays shareable.

No JS? Fill the form by hand. The geolocation button needs JavaScript.